User: anonymous   Login
Location: Waning Moon II Observatory
(30.3730°N, 89.7620°W)
Time: 10:03:16
(UTC-05:00)
Language:

Meteor 1-21 - Orbit

View from above orbital plane
View from above orbital plane
View from above satellite
View from above satellite

Ground track
Ground track

The orbit data is extracted from the following two-line orbital elements,

1 07714U 75023A   15122.89853980  .00000224  00000-0  12463-3 0  9994
2 07714 081.2127 227.4899 0029408 286.9772 072.8175 14.07888567375950
Epoch (UTC): 02 May 2015 21:33:53
Eccentricity: 0.0029408
inclination: 81.2127°
perigee height: 845 km
apogee height: 888 km
right ascension of ascending node: 227.4899°
argument of perigee: 286.9772°
revolutions per day: 14.07888567
mean anomaly at epoch: 72.8175°
orbit number at epoch: 37595

The dashed part of the orbit path shows where the satellite is in the earth's shadow,  

DLR